Time,TemperatureF,DewpointF,PressureIn,WindDirection,WindDirectionDegrees,WindSpeedMPH,WindSpeedGustMPH,Humidity,HourlyPrecipIn,Conditions,Clouds,dailyrainin,SolarRadiationWatts/m^2,SoftwareType,DateUTC
2013-06-28 00:11:00,44.0,43.0,-100.00,SSE,147,14.0,14.0,96,0.00,,,0.00,5.300000,,2013-06-28 08:11:00,
2013-06-28 00:21:00,44.0,43.0,-100.00,SSE,147,14.0,14.0,96,0.00,,,0.00,5.300000,,2013-06-28 08:21:00,
2013-06-28 00:33:00,44.0,43.0,-100.00,SSE,147,14.0,14.0,96,0.00,,,0.00,5.300000,,2013-06-28 08:33:00,
2013-06-28 01:11:00,45.0,43.0,-100.00,SE,146,14.0,19.0,93,0.00,,,0.00,0.000000,,2013-06-28 09:11:00,
2013-06-28 01:22:00,45.0,43.0,-100.00,SE,146,14.0,19.0,93,0.00,,,0.00,0.000000,,2013-06-28 09:22:00,
2013-06-28 01:33:00,45.0,43.0,-100.00,SE,146,14.0,19.0,93,0.00,,,0.00,0.000000,,2013-06-28 09:33:00,
2013-06-28 01:42:00,45.0,43.0,-100.00,SE,146,14.0,19.0,93,0.00,,,0.00,0.000000,,2013-06-28 09:42:00,
2013-06-28 02:11:00,43.0,42.0,-100.00,SSE,151,15.0,20.0,95,0.00,,,0.00,0.000000,,2013-06-28 10:11:00,
2013-06-28 02:22:00,43.0,42.0,-100.00,SSE,151,15.0,20.0,95,0.00,,,0.00,0.000000,,2013-06-28 10:22:00,
2013-06-28 02:33:00,43.0,42.0,-100.00,SSE,151,15.0,20.0,95,0.00,,,0.00,0.000000,,2013-06-28 10:33:00,
2013-06-28 02:42:00,43.0,42.0,-100.00,SSE,151,15.0,20.0,95,0.00,,,0.00,0.000000,,2013-06-28 10:42:00,
2013-06-28 03:11:00,44.0,42.0,-100.00,SSW,195,5.0,22.0,96,0.00,,,0.00,0.000000,,2013-06-28 11:11:00,
2013-06-28 03:22:00,44.0,42.0,-100.00,SSW,195,5.0,22.0,96,0.00,,,0.00,0.000000,,2013-06-28 11:22:00,
2013-06-28 03:34:00,44.0,42.0,-100.00,SSW,195,5.0,22.0,96,0.00,,,0.00,0.000000,,2013-06-28 11:34:00,
2013-06-28 03:42:00,44.0,42.0,-100.00,SSW,195,5.0,22.0,96,0.00,,,0.00,0.000000,,2013-06-28 11:42:00,
2013-06-28 03:43:00,44.0,43.0,-100.00,North,9,3.0,19.0,98,0.00,,,0.00,0.000000,,2013-06-28 11:43:00,
2013-06-28 04:12:00,44.0,43.0,-100.00,North,9,3.0,19.0,98,0.00,,,0.00,0.000000,,2013-06-28 12:12:00,
2013-06-28 04:22:00,44.0,43.0,-100.00,North,9,3.0,19.0,98,0.00,,,0.00,0.000000,,2013-06-28 12:22:00,
2013-06-28 04:33:00,44.0,43.0,-100.00,North,9,3.0,19.0,98,0.00,,,0.00,0.000000,,2013-06-28 12:33:00,
2013-06-28 04:43:00,45.0,43.0,-100.00,SSE,164,2.0,10.0,94,0.00,,,0.00,0.900000,,2013-06-28 12:43:00,
2013-06-28 05:11:00,45.0,43.0,-100.00,SSE,164,2.0,10.0,94,0.00,,,0.00,0.900000,,2013-06-28 13:11:00,
2013-06-28 05:23:00,45.0,43.0,-100.00,SSE,164,2.0,10.0,94,0.00,,,0.00,0.900000,,2013-06-28 13:23:00,
2013-06-28 05:33:00,45.0,43.0,-100.00,SSE,164,2.0,10.0,94,0.00,,,0.00,0.900000,,2013-06-28 13:33:00,
2013-06-28 05:43:00,46.0,42.0,-100.00,SSE,158,5.0,5.0,86,0.00,,,0.00,8.100000,,2013-06-28 13:43:00,
2013-06-28 06:11:00,46.0,42.0,-100.00,SSE,158,5.0,5.0,86,0.00,,,0.00,8.100000,,2013-06-28 14:11:00,
2013-06-28 06:22:00,46.0,42.0,-100.00,SSE,158,5.0,5.0,86,0.00,,,0.00,8.100000,,2013-06-28 14:22:00,
2013-06-28 06:33:00,46.0,42.0,-100.00,SSE,158,5.0,5.0,86,0.00,,,0.00,8.100000,,2013-06-28 14:33:00,
2013-06-28 06:43:00,45.0,42.0,-100.00,SSE,168,6.0,15.0,89,0.00,,,0.00,21.299999,,2013-06-28 14:43:00,
2013-06-28 07:11:00,45.0,42.0,-100.00,SSE,168,6.0,15.0,89,0.00,,,0.00,21.299999,,2013-06-28 15:11:00,
2013-06-28 07:24:00,45.0,42.0,-100.00,SSE,168,6.0,15.0,89,0.00,,,0.00,21.299999,,2013-06-28 15:24:00,
2013-06-28 07:33:00,45.0,42.0,-100.00,SSE,168,6.0,15.0,89,0.00,,,0.00,21.299999,,2013-06-28 15:33:00,
2013-06-28 07:43:00,45.0,42.0,-100.00,SSE,159,6.0,16.0,89,0.00,,,0.00,88.000000,,2013-06-28 15:43:00,
2013-06-28 08:11:00,45.0,42.0,-100.00,SSE,159,6.0,16.0,89,0.00,,,0.00,88.000000,,2013-06-28 16:11:00,
2013-06-28 08:24:00,45.0,42.0,-100.00,SSE,159,6.0,16.0,89,0.00,,,0.00,88.000000,,2013-06-28 16:24:00,
2013-06-28 08:33:00,45.0,42.0,-100.00,SSE,159,6.0,16.0,89,0.00,,,0.00,88.000000,,2013-06-28 16:33:00,
2013-06-28 08:43:00,46.0,43.0,-100.00,SSE,166,7.0,14.0,88,0.00,,,0.00,138.699997,,2013-06-28 16:43:00,
2013-06-28 09:11:00,46.0,43.0,-100.00,SSE,166,7.0,14.0,88,0.00,,,0.00,138.699997,,2013-06-28 17:11:00,
2013-06-28 09:22:00,46.0,43.0,-100.00,SSE,166,7.0,14.0,88,0.00,,,0.00,138.699997,,2013-06-28 17:22:00,
2013-06-28 09:33:00,46.0,43.0,-100.00,SSE,166,7.0,14.0,88,0.00,,,0.00,138.699997,,2013-06-28 17:33:00,
2013-06-28 09:43:00,45.0,43.0,-100.00,West,278,4.0,13.0,93,0.00,,,0.00,204.300003,,2013-06-28 17:43:00,
2013-06-28 10:01:00,45.0,43.0,-100.00,West,278,4.0,13.0,93,0.00,,,0.00,204.300003,,2013-06-28 18:01:00,
2013-06-28 10:11:00,45.0,43.0,-100.00,West,278,4.0,13.0,93,0.00,,,0.00,204.300003,,2013-06-28 18:11:00,
2013-06-28 10:22:00,45.0,43.0,-100.00,West,278,4.0,13.0,93,0.00,,,0.00,204.300003,,2013-06-28 18:22:00,
2013-06-28 10:33:00,45.0,43.0,-100.00,West,278,4.0,13.0,93,0.00,,,0.00,204.300003,,2013-06-28 18:33:00,
2013-06-28 11:11:00,50.0,45.0,-100.00,ESE,119,1.0,5.0,83,0.00,,,0.00,447.200012,,2013-06-28 19:11:00,
2013-06-28 11:22:00,50.0,45.0,-100.00,ESE,119,1.0,5.0,83,0.00,,,0.00,447.200012,,2013-06-28 19:22:00,
2013-06-28 11:32:00,50.0,45.0,-100.00,ESE,119,1.0,5.0,83,0.00,,,0.00,447.200012,,2013-06-28 19:32:00,
2013-06-28 11:42:00,50.0,45.0,-100.00,ESE,119,1.0,5.0,83,0.00,,,0.00,447.200012,,2013-06-28 19:42:00,
2013-06-28 11:43:00,49.0,43.0,-100.00,NW,315,2.0,4.0,82,0.00,,,-99.99,339.399994,,2013-06-28 19:43:00,
2013-06-28 12:11:00,49.0,43.0,-100.00,NW,315,2.0,4.0,82,0.00,,,-99.99,339.399994,,2013-06-28 20:11:00,
2013-06-28 12:22:00,49.0,43.0,-100.00,NW,315,2.0,4.0,82,0.00,,,-99.99,339.399994,,2013-06-28 20:22:00,
2013-06-28 12:33:00,49.0,43.0,-100.00,NW,315,2.0,4.0,82,0.00,,,-99.99,339.399994,,2013-06-28 20:33:00,
2013-06-28 12:43:00,47.0,43.0,-100.00,ESE,113,4.0,5.0,85,0.00,,,0.00,441.000000,,2013-06-28 20:43:00,
2013-06-28 13:01:00,47.0,43.0,-100.00,ESE,113,4.0,5.0,85,0.00,,,0.00,441.000000,,2013-06-28 21:01:00,
2013-06-28 13:11:00,47.0,43.0,-100.00,ESE,113,4.0,5.0,85,0.00,,,0.00,441.000000,,2013-06-28 21:11:00,
2013-06-28 13:23:00,47.0,43.0,-100.00,ESE,113,4.0,5.0,85,0.00,,,0.00,441.000000,,2013-06-28 21:23:00,
2013-06-28 13:33:00,47.0,43.0,-100.00,ESE,113,4.0,5.0,85,0.00,,,0.00,441.000000,,2013-06-28 21:33:00,
2013-06-28 14:01:00,48.0,43.0,-100.00,WSW,237,5.0,6.0,82,0.00,,,0.00,493.899994,,2013-06-28 22:01:00,
2013-06-28 14:11:00,48.0,43.0,-100.00,WSW,237,5.0,6.0,82,0.00,,,0.00,493.899994,,2013-06-28 22:11:00,
2013-06-28 14:22:00,48.0,43.0,-100.00,WSW,237,5.0,6.0,82,0.00,,,0.00,493.899994,,2013-06-28 22:22:00,
2013-06-28 14:34:00,48.0,43.0,-100.00,WSW,237,5.0,6.0,82,0.00,,,0.00,493.899994,,2013-06-28 22:34:00,
2013-06-28 14:42:00,48.0,43.0,-100.00,WSW,237,5.0,6.0,82,0.00,,,0.00,493.899994,,2013-06-28 22:42:00,
2013-06-28 14:43:00,48.0,43.0,-100.00,WSW,252,7.0,7.0,83,0.00,,,0.00,862.900024,,2013-06-28 22:43:00,
2013-06-28 15:11:00,48.0,43.0,-100.00,WSW,252,7.0,7.0,83,0.00,,,0.00,862.900024,,2013-06-28 23:11:00,
2013-06-28 15:23:00,48.0,43.0,-100.00,WSW,252,7.0,7.0,83,0.00,,,0.00,862.900024,,2013-06-28 23:23:00,
2013-06-28 15:33:00,48.0,43.0,-100.00,WSW,252,7.0,7.0,83,0.00,,,0.00,862.900024,,2013-06-28 23:33:00,
2013-06-28 16:02:00,47.0,43.0,-100.00,West,273,6.0,8.0,88,0.00,,,0.00,478.799988,,2013-06-29 00:02:00,
2013-06-28 16:11:00,47.0,43.0,-100.00,West,273,6.0,8.0,88,0.00,,,0.00,478.799988,,2013-06-29 00:11:00,
2013-06-28 16:22:00,47.0,43.0,-100.00,West,273,6.0,8.0,88,0.00,,,0.00,478.799988,,2013-06-29 00:22:00,
2013-06-28 16:33:00,47.0,43.0,-100.00,West,273,6.0,8.0,88,0.00,,,0.00,478.799988,,2013-06-29 00:33:00,
2013-06-28 16:42:00,47.0,43.0,-100.00,West,273,6.0,8.0,88,0.00,,,0.00,478.799988,,2013-06-29 00:42:00,
2013-06-28 17:11:00,52.0,45.0,-100.00,NW,309,3.0,7.0,78,0.00,,,0.00,659.700012,,2013-06-29 01:11:00,
2013-06-28 17:22:00,52.0,45.0,-100.00,NW,309,3.0,7.0,78,0.00,,,0.00,659.700012,,2013-06-29 01:22:00,
2013-06-28 17:31:00,52.0,45.0,-100.00,NW,309,3.0,7.0,78,0.00,,,0.00,659.700012,,2013-06-29 01:31:00,
2013-06-28 17:42:00,52.0,45.0,-100.00,NW,309,3.0,7.0,78,0.00,,,0.00,659.700012,,2013-06-29 01:42:00,
2013-06-28 18:01:00,50.0,45.0,-100.00,West,279,2.0,4.0,82,0.00,,,0.00,510.200012,,2013-06-29 02:01:00,
2013-06-28 18:10:00,50.0,45.0,-100.00,West,279,2.0,4.0,82,0.00,,,0.00,510.200012,,2013-06-29 02:10:00,
2013-06-28 18:21:00,50.0,45.0,-100.00,West,279,2.0,4.0,82,0.00,,,0.00,510.200012,,2013-06-29 02:21:00,
2013-06-28 18:31:00,50.0,45.0,-100.00,West,279,2.0,4.0,82,0.00,,,0.00,510.200012,,2013-06-29 02:31:00,
2013-06-28 18:41:00,50.0,45.0,-100.00,West,279,2.0,4.0,82,0.00,,,0.00,510.200012,,2013-06-29 02:41:00,
2013-06-28 19:01:00,45.0,44.0,-100.00,WNW,302,3.0,4.0,94,0.00,,,0.00,263.799988,,2013-06-29 03:01:00,
2013-06-28 19:11:00,45.0,44.0,-100.00,WNW,302,3.0,4.0,94,0.00,,,0.00,263.799988,,2013-06-29 03:11:00,
2013-06-28 19:21:00,45.0,44.0,-100.00,WNW,302,3.0,4.0,94,0.00,,,0.00,263.799988,,2013-06-29 03:21:00,
2013-06-28 19:31:00,45.0,44.0,-100.00,WNW,302,3.0,4.0,94,0.00,,,0.00,263.799988,,2013-06-29 03:31:00,
2013-06-28 19:41:00,45.0,44.0,-100.00,WNW,302,3.0,4.0,94,0.00,,,0.00,263.799988,,2013-06-29 03:41:00,
2013-06-28 20:01:00,44.0,43.0,-100.00,WNW,286,4.0,5.0,97,0.00,,,0.00,160.600006,,2013-06-29 04:01:00,
2013-06-28 20:11:00,44.0,43.0,-100.00,WNW,286,4.0,5.0,97,0.00,,,0.00,160.600006,,2013-06-29 04:11:00,
2013-06-28 20:22:00,44.0,43.0,-100.00,WNW,286,4.0,5.0,97,0.00,,,0.00,160.600006,,2013-06-29 04:22:00,
2013-06-28 20:31:00,44.0,43.0,-100.00,WNW,286,4.0,5.0,97,0.00,,,0.00,160.600006,,2013-06-29 04:31:00,
2013-06-28 20:41:00,44.0,43.0,-100.00,WNW,286,4.0,5.0,97,0.00,,,0.00,160.600006,,2013-06-29 04:41:00,
2013-06-28 21:10:00,43.0,42.0,-100.00,NW,306,6.0,9.0,98,0.00,,,0.00,122.800003,,2013-06-29 05:10:00,
2013-06-28 21:21:00,43.0,42.0,-100.00,NW,306,6.0,9.0,98,0.00,,,0.00,122.800003,,2013-06-29 05:21:00,
2013-06-28 21:31:00,43.0,42.0,-100.00,NW,306,6.0,9.0,98,0.00,,,0.00,122.800003,,2013-06-29 05:31:00,
2013-06-28 21:41:00,43.0,42.0,-100.00,NW,306,6.0,9.0,98,0.00,,,0.00,122.800003,,2013-06-29 05:41:00,
2013-06-28 21:43:00,43.0,43.0,-100.00,WNW,302,6.0,9.0,99,0.00,,,0.00,82.199997,,2013-06-29 05:43:00,
2013-06-28 22:12:00,43.0,43.0,-100.00,WNW,302,6.0,9.0,99,0.00,,,0.00,82.199997,,2013-06-29 06:12:00,
2013-06-28 22:22:00,43.0,43.0,-100.00,WNW,302,6.0,9.0,99,0.00,,,0.00,82.199997,,2013-06-29 06:22:00,
2013-06-28 22:33:00,43.0,43.0,-100.00,WNW,302,6.0,9.0,99,0.00,,,0.00,82.199997,,2013-06-29 06:33:00,
2013-06-28 22:43:00,43.0,43.0,-100.00,WNW,299,4.0,9.0,99,0.00,,,0.00,34.400002,,2013-06-29 06:43:00,
2013-06-28 23:12:00,43.0,43.0,-100.00,WNW,299,4.0,9.0,99,0.00,,,0.00,34.400002,,2013-06-29 07:12:00,
2013-06-28 23:22:00,43.0,43.0,-100.00,WNW,299,4.0,9.0,99,0.00,,,0.00,34.400002,,2013-06-29 07:22:00,
2013-06-28 23:33:00,43.0,43.0,-100.00,WNW,299,4.0,9.0,99,0.00,,,0.00,34.400002,,2013-06-29 07:33:00,
2013-06-28 23:43:00,43.0,43.0,-100.00,WNW,297,6.0,9.0,99,0.00,,,0.00,8.200000,,2013-06-29 07:43:00,